CXCMD SUMO-SUCH

Flight info

Callsign CXCMD
Flight time 0h 31m
Altitude 3500
Route VISUAL
Aircraft PA36/L-SDE3FGHIRWY/LB1

Departure

Time 2026-05-06 17:40
Airport Cerro Largo International Airport (SUMO)

Arrival

Time 2026-05-06 18:11
Airport Chuy Airport (SUCH)
Time Latitude Longitude Altitude Speed Heading
2026-05-06 17:33 -32.33931 -54.22327 370 ft 0 kts 238°
2026-05-06 17:38 -32.33940 -54.22320 370 ft 4 kts 57°
2026-05-06 17:38 -32.33928 -54.22269 370 ft 11 kts 128°
2026-05-06 17:38 -32.34010 -54.22199 370 ft 13 kts 150°
2026-05-06 17:38 -32.34083 -54.22273 370 ft 16 kts 240°
2026-05-06 17:39 -32.34121 -54.22346 370 ft 6 kts 142°
2026-05-06 17:39 -32.34048 -54.22196 370 ft 56 kts 59°
2026-05-06 17:39 -32.33792 -54.21598 513 ft 91 kts 76°
2026-05-06 17:39 -32.33974 -54.20907 891 ft 102 kts 134°
2026-05-06 17:40 -32.34660 -54.20401 1081 ft 123 kts 153°
2026-05-06 17:40 -32.35526 -54.20023 1211 ft 146 kts 166°
2026-05-06 17:40 -32.36555 -54.19599 1170 ft 167 kts 162°
2026-05-06 17:40 -32.37669 -54.19093 1256 ft 171 kts 162°
2026-05-06 17:41 -32.38703 -54.18434 1476 ft 169 kts 142°
2026-05-06 17:41 -32.39726 -54.17724 1707 ft 172 kts 151°
2026-05-06 17:41 -32.40803 -54.17142 1917 ft 173 kts 155°
2026-05-06 17:41 -32.41903 -54.16573 2134 ft 171 kts 155°
2026-05-06 17:42 -32.42976 -54.16015 2341 ft 162 kts 155°
2026-05-06 17:42 -32.44028 -54.15454 2569 ft 170 kts 155°
2026-05-06 17:42 -32.45133 -54.14867 2776 ft 174 kts 156°
2026-05-06 17:42 -32.46247 -54.14282 3004 ft 176 kts 157°
2026-05-06 17:43 -32.47371 -54.13683 3226 ft 177 kts 157°
2026-05-06 17:43 -32.48495 -54.13091 3428 ft 178 kts 158°
2026-05-06 17:43 -32.49672 -54.12471 3438 ft 191 kts 158°
2026-05-06 17:43 -32.50912 -54.11818 3447 ft 199 kts 157°
2026-05-06 17:44 -32.52189 -54.11133 3436 ft 202 kts 157°
2026-05-06 17:44 -32.53475 -54.10450 3441 ft 204 kts 158°
2026-05-06 17:44 -32.54779 -54.09758 3439 ft 206 kts 157°
2026-05-06 17:44 -32.56087 -54.09063 3434 ft 205 kts 157°
2026-05-06 17:45 -32.57377 -54.08378 3435 ft 207 kts 157°
2026-05-06 17:45 -32.58691 -54.07682 3436 ft 206 kts 157°
2026-05-06 17:45 -32.60001 -54.06982 3439 ft 206 kts 157°
2026-05-06 17:45 -32.61301 -54.06292 3434 ft 204 kts 157°
2026-05-06 17:46 -32.62593 -54.05608 3435 ft 203 kts 157°
2026-05-06 17:46 -32.63881 -54.04921 3435 ft 203 kts 157°
2026-05-06 17:46 -32.65173 -54.04236 3436 ft 204 kts 157°
2026-05-06 17:46 -32.66465 -54.03547 3432 ft 202 kts 157°
2026-05-06 17:47 -32.67745 -54.02866 3431 ft 202 kts 157°
2026-05-06 17:47 -32.69024 -54.02185 3432 ft 201 kts 157°
2026-05-06 17:47 -32.70295 -54.01472 3436 ft 202 kts 154°
2026-05-06 17:47 -32.71572 -54.00762 3428 ft 202 kts 156°
2026-05-06 17:48 -32.72852 -54.00084 3429 ft 202 kts 156°
2026-05-06 17:48 -32.74123 -53.99413 3416 ft 202 kts 156°
2026-05-06 17:48 -32.75414 -53.98726 3421 ft 200 kts 156°
2026-05-06 17:48 -32.76680 -53.98049 3420 ft 200 kts 156°
2026-05-06 17:49 -32.77933 -53.97380 3419 ft 199 kts 156°
2026-05-06 17:49 -32.79196 -53.96707 3420 ft 198 kts 156°
2026-05-06 17:49 -32.80451 -53.96036 3423 ft 198 kts 156°
2026-05-06 17:49 -32.81708 -53.95365 3420 ft 198 kts 156°
2026-05-06 17:50 -32.82965 -53.94694 3419 ft 198 kts 156°
2026-05-06 17:50 -32.84224 -53.94020 3416 ft 198 kts 156°
2026-05-06 17:50 -32.85481 -53.93348 3417 ft 198 kts 156°
2026-05-06 17:50 -32.86741 -53.92675 3417 ft 198 kts 156°
2026-05-06 17:51 -32.87999 -53.92002 3421 ft 198 kts 156°
2026-05-06 17:51 -32.89257 -53.91328 3427 ft 198 kts 156°
2026-05-06 17:51 -32.90517 -53.90654 3423 ft 198 kts 156°
2026-05-06 17:51 -32.91771 -53.90017 3424 ft 199 kts 159°
2026-05-06 17:52 -32.93057 -53.89358 3419 ft 199 kts 158°
2026-05-06 17:52 -32.94302 -53.88687 3420 ft 199 kts 157°
2026-05-06 17:52 -32.95565 -53.88004 3420 ft 199 kts 157°
2026-05-06 17:52 -32.96829 -53.87325 3421 ft 199 kts 157°
2026-05-06 17:53 -32.98096 -53.86646 3424 ft 200 kts 157°
2026-05-06 17:53 -32.99365 -53.85965 3424 ft 200 kts 157°
2026-05-06 17:53 -33.00635 -53.85283 3423 ft 200 kts 157°
2026-05-06 17:53 -33.01898 -53.84604 3423 ft 199 kts 157°
2026-05-06 17:54 -33.03164 -53.83926 3425 ft 199 kts 157°
2026-05-06 17:54 -33.04430 -53.83246 3425 ft 200 kts 157°
2026-05-06 17:54 -33.05684 -53.82572 3426 ft 200 kts 157°
2026-05-06 17:54 -33.06959 -53.81885 3426 ft 201 kts 157°
2026-05-06 17:55 -33.08236 -53.81199 3422 ft 201 kts 157°
2026-05-06 17:55 -33.09508 -53.80515 3423 ft 201 kts 157°
2026-05-06 17:55 -33.10779 -53.79832 3427 ft 200 kts 157°
2026-05-06 17:55 -33.12052 -53.79146 3424 ft 200 kts 157°
2026-05-06 17:56 -33.13324 -53.78462 3429 ft 200 kts 157°
2026-05-06 17:56 -33.14587 -53.77781 3431 ft 200 kts 157°
2026-05-06 17:56 -33.15856 -53.77098 3432 ft 201 kts 157°
2026-05-06 17:56 -33.17132 -53.76411 3432 ft 202 kts 157°
2026-05-06 17:57 -33.18406 -53.75718 3430 ft 201 kts 156°
2026-05-06 17:57 -33.19660 -53.75042 3430 ft 200 kts 157°
2026-05-06 17:57 -33.20931 -53.74362 3435 ft 200 kts 157°
2026-05-06 17:57 -33.22200 -53.73678 3429 ft 200 kts 158°
2026-05-06 17:58 -33.23464 -53.72995 3434 ft 199 kts 157°
2026-05-06 17:58 -33.24726 -53.72312 3433 ft 198 kts 158°
2026-05-06 17:58 -33.25980 -53.71635 3437 ft 197 kts 158°
2026-05-06 17:58 -33.27231 -53.70959 3436 ft 197 kts 158°
2026-05-06 17:59 -33.28480 -53.70284 3432 ft 197 kts 158°
2026-05-06 17:59 -33.29723 -53.69612 3433 ft 196 kts 158°
2026-05-06 17:59 -33.30967 -53.68940 3434 ft 197 kts 158°
2026-05-06 17:59 -33.32217 -53.68263 3430 ft 196 kts 158°
2026-05-06 18:00 -33.33458 -53.67594 3436 ft 197 kts 158°
2026-05-06 18:00 -33.34703 -53.66920 3433 ft 200 kts 157°
2026-05-06 18:00 -33.35973 -53.66231 3439 ft 201 kts 157°
2026-05-06 18:00 -33.37238 -53.65548 3437 ft 193 kts 158°
2026-05-06 18:01 -33.38422 -53.64911 3427 ft 181 kts 158°
2026-05-06 18:01 -33.39538 -53.64298 3421 ft 173 kts 158°
2026-05-06 18:01 -33.40618 -53.63710 3426 ft 168 kts 158°
2026-05-06 18:01 -33.41676 -53.63139 3428 ft 165 kts 158°
2026-05-06 18:02 -33.42727 -53.62571 3424 ft 166 kts 158°
2026-05-06 18:02 -33.43780 -53.62000 3425 ft 166 kts 157°
2026-05-06 18:02 -33.44818 -53.61433 3429 ft 163 kts 156°
2026-05-06 18:02 -33.45860 -53.60865 3427 ft 165 kts 158°
2026-05-06 18:03 -33.46899 -53.60309 3424 ft 162 kts 158°
2026-05-06 18:03 -33.47920 -53.59753 3421 ft 160 kts 157°
2026-05-06 18:03 -33.48926 -53.59205 3427 ft 159 kts 157°
2026-05-06 18:03 -33.49904 -53.58673 3427 ft 162 kts 157°
2026-05-06 18:04 -33.50926 -53.58119 3430 ft 160 kts 157°
2026-05-06 18:04 -33.51931 -53.57573 3431 ft 161 kts 156°
2026-05-06 18:04 -33.52951 -53.57018 3433 ft 160 kts 156°
2026-05-06 18:04 -33.53967 -53.56465 3432 ft 160 kts 157°
2026-05-06 18:05 -33.54971 -53.55917 3393 ft 162 kts 157°
2026-05-06 18:05 -33.56033 -53.55342 3212 ft 172 kts 156°
2026-05-06 18:05 -33.57139 -53.54741 3030 ft 175 kts 156°
2026-05-06 18:05 -33.58247 -53.54140 2847 ft 175 kts 155°
2026-05-06 18:06 -33.59341 -53.53539 2654 ft 171 kts 155°
2026-05-06 18:06 -33.60407 -53.52961 2453 ft 170 kts 155°
2026-05-06 18:06 -33.61479 -53.52372 2265 ft 169 kts 153°
2026-05-06 18:06 -33.62548 -53.51792 2076 ft 168 kts 153°
2026-05-06 18:07 -33.63619 -53.51197 1867 ft 170 kts 151°
2026-05-06 18:07 -33.64680 -53.50624 1680 ft 165 kts 152°
2026-05-06 18:07 -33.65716 -53.50064 1467 ft 160 kts 152°
2026-05-06 18:07 -33.66718 -53.49525 1263 ft 155 kts 152°
2026-05-06 18:08 -33.67674 -53.49007 1061 ft 146 kts 150°
2026-05-06 18:08 -33.68588 -53.48499 939 ft 142 kts 149°
2026-05-06 18:08 -33.69450 -53.48137 924 ft 117 kts 170°
2026-05-06 18:08 -33.70163 -53.48268 911 ft 94 kts 190°
2026-05-06 18:09 -33.70811 -53.48474 913 ft 99 kts 186°
2026-05-06 18:09 -33.71473 -53.48634 981 ft 98 kts 216°
2026-05-06 18:09 -33.71866 -53.49299 1142 ft 102 kts 266°
2026-05-06 18:09 -33.71500 -53.49896 1029 ft 102 kts 11°
2026-05-06 18:10 -33.71121 -53.49261 664 ft 96 kts 71°
2026-05-06 18:10 -33.71067 -53.48538 423 ft 79 kts 81°
2026-05-06 18:10 -33.71054 -53.47905 167 ft 68 kts 78°
2026-05-06 18:10 -33.71073 -53.47423 84 ft 53 kts 88°
2026-05-06 18:11 -33.71086 -53.47082 64 ft 33 kts 97°
2026-05-06 18:11 -33.71098 -53.46918 58 ft 26 kts 92°
2026-05-06 18:11 -33.71141 -53.46779 54 ft 8 kts 102°
2026-05-06 18:11 -33.71143 -53.46773 54 ft 0 kts 105°